Location: Newark
(0.5300°S, 127.4800°E)
Time: 23:54:55
(UTC+00:00)

Vanguard 3 - Pass Details

Date: 25 September 2019
Orbit: 508 x 3262 km, 33.3° (Epoch: 13 October)

Event Time Altitude Azimuth Distance (km) Brightness Sun altitude
Rises 19:17:18 0° 252° (WSW) 3,346 - -31.1°
Reaches altitude 10° 19:19:25 10° 258° (WSW) 2,639 - -30.6°
Exits shadow 19:25:16 47° 325° (NW) 1,667 8.4 -29.1°
Maximum altitude 19:25:34 47° 331° (NNW) 1,688 8.4 -29.0°
Drops below altitude 10° 19:36:22 10° 41° (NE) 4,543 11.4 -26.3°
Sets 19:41:14 0° 47° (NE) 6,010 12.2 -25.1°
